Flag for Honduras Weather past 2 weeks in Tegucigalpa, Honduras

Now
70 °F

Passing clouds.


Feels Like: 70 °F
Forecast: 66 / 82 °F
Wind: 12 mph from North

Location: Tegucigalpa Airport

Current Time: Jul 25, 2014 at 3:35:11 AM

Latest Report: Jul 25, 2014 at 3:00 AM


Visibility: N/A

Pressure: 30.07 "Hg

Humidity: 83%

Dew point: 64 °F

Location of TegucigalpaLocation

Historic Weather in Tegucigalpa — Graph

°F

Tegucigalpa temperature yesterday

Maximum temperature yesterday: 86 °F (at 2:00 PM)
Minimum temperature yesterday: 66 °F (at 4:00 AM)
Average temperature yesterday: 76 °F

Past Weeks' High & Low Weather Summary

 TemperatureHumidityPressure
High88 °F (Jul 16, 12:00 PM)100% (Jul 14, 1:00 AM)30.18 "Hg (Jul 14, 1:00 AM)
Low61 °F (Jul 16, 5:00 AM)35% (Jul 15, 1:00 PM)29.89 "Hg (Jul 19, 8:00 AM)
Average75 °F69%30.10 "Hg
* Reported Midnight between Jul 9 and Jul 10 — Midnight between Jul 24 and Jul 25, Tegucigalpa, Weather by CustomWeather, © 2014

Note: Actual official high and low records may vary slightly from our data, if they occured in-between our weather recording intervals... More about our weather records

Advertising

Tegucigalpa weather history for previous 24 hours

 ConditionsComfort  
Time TempWeatherWind HumidityBarometerVisibility
12:00 AM
Jul 25
72 °FPassing clouds.9 mph73%30.12 "HgN/A
11:00 PM
Jul 24
72 °FPassing clouds.5 mph73%30.12 "HgN/A
10:00 PM73 °FPassing clouds.7 mph65%30.12 "HgN/A
9:00 PM73 °FPartly cloudy.7 mph69%30.09 "HgN/A
8:00 PM75 °FPassing clouds.7 mph65%30.07 "HgN/A
7:00 PM77 °FPassing clouds.9 mph51%30.07 "HgN/A
6:00 PM81 °FPartly sunny.No wind48%30.04 "HgN/A
5:00 PM82 °FScattered clouds.7 mph42%30.04 "HgN/A
4:00 PM86 °FScattered clouds.6 mph35%30.01 "HgN/A
3:00 PM86 °FPassing clouds.8 mph38%30.01 "HgN/A
2:00 PM86 °FScattered clouds.7 mph38%30.04 "HgN/A
1:00 PM84 °FScattered clouds.12 mph37%30.07 "HgN/A
12:00 PM84 °FScattered clouds.14 mph40%30.09 "HgN/A
11:00 AM81 °FScattered clouds.12 mph45%30.09 "HgN/A
10:00 AM79 °FScattered clouds.12 mph51%30.09 "HgN/A
9:00 AM75 °FScattered clouds.12 mph61%30.09 "HgN/A
8:00 AM72 °FScattered clouds.7 mph73%30.09 "HgN/A
7:00 AM68 °FScattered clouds.12 mph83%30.09 "HgN/A
6:00 AM68 °FScattered clouds.7 mph94%30.07 "HgN/A
5:00 AM66 °FPassing clouds.7 mph88%30.07 "HgN/A
4:00 AM66 °FPassing clouds.5 mph88%30.07 "HgN/A
3:00 AM68 °FPassing clouds.7 mph88%30.07 "HgN/A
Weather by CustomWeather, © 2014

See weather overviewHow to use our weather pages